Lille, France

11:47 AM CET on February 22, 2017 (GMT +0100)
Lesquin

Weather History for LFQQ - October, 2011

Change the Weather History Date:

Friday, October 21, 2011

  Actual Average Record
Temperature  
Mean Temperature 44 °F -  
Max Temperature 55 °F 51 °F 65 °F (2013)
Min Temperature 33 °F 40 °F 32 °F (2010)
Degree Days  
Heating Degree Days 21    
Moisture  
Dew Point 35 °F    
Average Humidity 75    
Maximum Humidity 100    
Minimum Humidity 40    
Precipitation  
Precipitation 0.00 in - - ()
Sea Level Pressure  
Sea Level Pressure 30.31 in    
Wind  
Wind Speed 3 mph ()    
Max Wind Speed 13 mph    
Max Gust Speed -    
Visibility 6.5 miles    
Events      
Averages and records for this station are not official NWS values.
T = Trace of Precipitation, MM = Missing Value Source: Averaged Metar Reports

Daily Weather History Graph

Daily Weather History Graph

Search for Another Location

Airport or City:

Trip Planner

Search our weather history database for the weather conditions in past years. The results will help you decide how hot, cold, wet, or windy it might be!

Date:

Astronomy

Oct. 21, 2011 Rise Set
Actual Time 8:19 AM CEST 6:44 PM CEST
Civil Twilight 7:45 AM CEST 7:17 PM CEST
Nautical Twilight 7:07 AM CEST 7:55 PM CEST
Astronomical Twilight 6:30 AM CEST 8:33 PM CEST
Moon 1:12 AM CEST (10/21) 3:54 PM CEST (10/21)
Length of Visible Light 11h 31m
Length of Day
10h 24m
Last Quarter, 36% of the Moon is Illuminated
Oct 21
Last Quarter
Oct 26
New
Nov 2
First Quarter
Nov 10
Full
Nov 18
Last Quarter

Hourly Weather History & Observations

Time (CEST) Temp. Windchill Dew Point Humidity Pressure Visibility Wind Dir Wind Speed Gust Speed Precip Events Conditions
12:00 AM 39.2 °F - 33.8 °F 81% 30.36 in - Calm Calm - N/A   Clear
12:30 AM 39.2 °F - 35.6 °F 87% 30.36 in - Calm Calm - N/A   Clear
1:00 AM 39.2 °F - 35.6 °F 87% 30.36 in - South 1.2 mph - N/A   Clear
1:30 AM 37.4 °F - 33.8 °F 87% 30.36 in - Calm Calm - N/A   Clear
2:00 AM 36 °F - 34 °F 88% 30.36 in 9 mi Calm Calm - -  
2:00 AM 35.6 °F - 33.8 °F 93% 30.33 in - Calm Calm - N/A   Clear
2:30 AM 35.6 °F - 33.8 °F 93% 30.33 in 6.2 mi SSW 1.2 mph - N/A   Unknown
3:00 AM 35.6 °F - 33.8 °F 93% 30.33 in 6.2 mi Calm Calm - N/A   Unknown
3:30 AM 35.6 °F - 33.8 °F 93% 30.33 in 6.2 mi SSE 2.3 mph - N/A   Unknown
4:00 AM 35.6 °F - 33.8 °F 93% 30.33 in 6.2 mi Calm Calm - N/A   Unknown
4:30 AM 35.6 °F - 33.8 °F 93% 30.33 in 6.2 mi SSE 2.3 mph - N/A   Unknown
5:00 AM 35.6 °F - 33.8 °F 93% 30.33 in - SSE 2.3 mph - N/A   Clear
5:30 AM 33.8 °F - 33.8 °F 100% 30.33 in - SSE 2.3 mph - N/A   Clear
6:00 AM 33.8 °F 30.8 °F 32.0 °F 93% 30.33 in - SSE 3.5 mph - N/A   Clear
6:30 AM 33.8 °F 30.8 °F 32.0 °F 93% 30.33 in - SSE 3.5 mph - N/A   Clear
7:00 AM 33.8 °F - 32.0 °F 93% 30.33 in - SE 2.3 mph - N/A   Clear
7:30 AM 33.8 °F - 32.0 °F 93% 30.33 in - SSE 2.3 mph - N/A   Clear
8:00 AM 34 °F - 32 °F 88% 30.34 in 7 mi SSE 4.6 mph - -   Partly Cloudy
8:00 AM 33.8 °F 29.6 °F 32.0 °F 93% 30.33 in - SSE 4.6 mph - N/A   Clear
8:30 AM 33.8 °F 30.8 °F 32.0 °F 93% 30.33 in - SSE 3.5 mph - N/A   Clear
9:00 AM 33.8 °F 29.6 °F 32.0 °F 93% 30.33 in 6.2 mi SE 4.6 mph - N/A   Mostly Cloudy
9:30 AM 35.6 °F 32.8 °F 33.8 °F 93% 30.33 in 6.2 mi SSE 3.5 mph - N/A   Mostly Cloudy
10:00 AM 39.2 °F 35.9 °F 37.4 °F 93% 30.33 in 6.2 mi South 4.6 mph - N/A   Mostly Cloudy
10:30 AM 42.8 °F 39.3 °F 35.6 °F 76% 30.33 in - South 5.8 mph - N/A   Clear
11:00 AM 46.4 °F 43.5 °F 37.4 °F 71% 30.33 in - SW 5.8 mph - N/A   Clear
11:30 AM 46.4 °F 41.9 °F 37.4 °F 71% 30.33 in - South 9.2 mph - N/A   Clear
12:00 PM 50.0 °F - 37.4 °F 62% 30.33 in - SSW 8.1 mph - N/A   Clear
12:30 PM 51.8 °F - 37.4 °F 58% 30.33 in - SSW 11.5 mph - N/A   Clear
1:00 PM 51.8 °F - 37.4 °F 58% 30.33 in - SSW 11.5 mph - N/A   Clear
1:30 PM 53.6 °F - 35.6 °F 51% 30.33 in - SSW 11.5 mph - N/A   Clear
2:00 PM 54 °F - 36 °F 40% 30.33 in 25 mi SW 12.7 mph - -   Scattered Clouds
2:00 PM 53.6 °F - 35.6 °F 51% 30.30 in - SW 12.7 mph - N/A   Clear
2:30 PM 55.4 °F - 35.6 °F 47% 30.30 in 6.2 mi SSW 11.5 mph - N/A   Partly Cloudy
3:00 PM 55.4 °F - 35.6 °F 47% 30.30 in 6.2 mi SSW 10.4 mph - N/A   Partly Cloudy
3:30 PM 55.4 °F - 35.6 °F 47% 30.30 in 6.2 mi South 11.5 mph - N/A   Partly Cloudy
4:00 PM 55.4 °F - 35.6 °F 47% 30.27 in - South 10.4 mph - N/A   Clear
4:30 PM 55.4 °F - 35.6 °F 47% 30.27 in - SSW 9.2 mph - N/A   Clear
5:00 PM 55.4 °F - 37.4 °F 51% 30.27 in - SSW 9.2 mph - N/A   Clear
5:30 PM 53.6 °F - 37.4 °F 54% 30.27 in - SSW 9.2 mph - N/A   Clear
6:00 PM 53.6 °F - 39.2 °F 58% 30.27 in - South 6.9 mph - N/A   Clear
6:30 PM 51.8 °F - 37.4 °F 58% 30.27 in - South 5.8 mph - N/A   Clear
7:00 PM 48.2 °F - 37.4 °F 66% 30.27 in - South 4.6 mph - N/A   Clear
7:30 PM 48.2 °F - 37.4 °F 66% 30.27 in - South 4.6 mph - N/A   Clear
8:00 PM 45 °F - 38 °F 67% 30.29 in 25 mi SSE 5.8 mph - -  
8:00 PM 46.4 °F 43.5 °F 37.4 °F 71% 30.27 in - SSE 5.8 mph - N/A   Clear
8:30 PM 44.6 °F 42.2 °F 37.4 °F 76% 30.27 in - South 4.6 mph - N/A   Clear
9:00 PM 42.8 °F 40.1 °F 35.6 °F 76% 30.27 in - SSE 4.6 mph - N/A   Clear
9:30 PM 42.8 °F 41.1 °F 35.6 °F 76% 30.27 in - SSE 3.5 mph - N/A   Clear
10:00 PM 42.8 °F 41.1 °F 35.6 °F 76% 30.27 in - SSE 3.5 mph - N/A   Clear
10:30 PM 41.0 °F - 35.6 °F 81% 30.27 in - SSE 2.3 mph - N/A   Clear
11:00 PM 41.0 °F - 33.8 °F 76% 30.27 in - Calm Calm - N/A   Clear
11:30 PM 41.0 °F - 33.8 °F 76% 30.27 in - SSE 1.2 mph - N/A   Clear